Voltar ao catálogo

STARLINK-31869

AtivoComunicaçõesVLEO
NORAD 60196·PAYLOAD·🇺🇸 United States

Lançado Jul 3, 2024 de Cape Canaveral Space Force Station

Loading…

Próximas Passagens (próximas 24 horas)

TLE

AtualizadoSource: CelesTrak SupGP

Época: Sep 14, 2026, 21:35 UTC

1 60196C 24124P   26257.89979167 -.00049851  00000+0 -16021-2 0  2570
2 60196  53.1569 162.1510 0001325  89.4560 340.2135 15.31747033    15

Acompanhe STARLINK-31869 em tempo real com AllMySat

Download on the App Store